Location: Prairie State College
(41.5244°N, 87.6382°W)
Time: 22:46:46
(UTC-05:00)

Amateur Radio Satellites - All Passes

Search period start: 22 October 2014 22:16
Search period end: 23 October 2014 22:16
Location: Prairie State College, 41.5244°N, 87.6382°W

Satellite Date Start Highest point End Downlink Frequencies (MHz)
Time Altitude Azimuth
FUNcube-1 22 Oct 22:18:08 22:22:44 83° 76° (ENE) 22:27:18 145.950 - 145.970 MHz USB
UOSAT-12 22 Oct 22:23:11 22:25:29 13° 36° (NE) 22:27:45 437.025 FM, 437.400 FM
SO-50 22 Oct 22:25:40 22:30:32 84° 57° (ENE) 22:35:26 436.795 FM
Oscar 11 22 Oct 22:27:07 22:31:01 32° 263° (W) 22:34:56 145.825 FM, Beacon 2401.500 USB
KITSAT 1 22 Oct 22:50:40 22:58:20 49° 248° (WSW) 23:05:58 435.175 FM
ZACube-1 22 Oct 23:09:53 23:13:51 29° 264° (W) 23:17:49 437.345 MHz
MaSat-1 22 Oct 23:31:41 23:34:51 21° 108° (ESE) 23:37:50 437.345 MHz
RS-15 23 Oct 00:00:44 00:11:31 60° 310° (NW) 00:22:21 29.354 - 29.394 USB, Beacon 29.352 USB
UOSAT-12 23 Oct 00:01:45 00:06:29 72° 56° (NE) 00:11:07 437.025 FM, 437.400 FM
SO-50 23 Oct 00:08:39 00:10:25 12° 253° (WSW) 00:12:11 436.795 FM
MaSat-1 23 Oct 01:06:37 01:10:25 33° 301° (WNW) 01:13:54 437.345 MHz
Oscar 19 23 Oct 01:20:24 01:23:47 18° 92° (E) 01:27:08 437.125 CW, 437.150 USB
UOSAT-12 23 Oct 01:43:49 01:46:00 13° 252° (WSW) 01:48:10 437.025 FM, 437.400 FM
Oscar 16 23 Oct 02:04:37 02:09:35 47° 99° (E) 02:14:29 437.025 USB, Beacon 2401.1428
JAS-1B 23 Oct 02:05:34 02:11:54 45° 100° (E) 02:19:20 435.800 - 435.900 CW/SSB
AO-Echo 23 Oct 02:16:51 02:21:39 34° 96° (E) 02:26:25 ?
RS-15 23 Oct 02:18:25 02:26:50 24° 341° (NNW) 02:35:22 29.354 - 29.394 USB, Beacon 29.352 USB
Uribyol 2 23 Oct 02:20:43 02:25:12 28° 95° (E) 02:29:38 436.500 FM
ITAMSAT 1 23 Oct 02:26:08 02:30:42 30° 96° (E) 02:35:14 435.822 SSB
Gurwin Techsat 1B 23 Oct 02:34:11 02:37:56 19° 92° (E) 02:41:40 435.225 FM
TMSAT-1 23 Oct 02:46:52 02:50:32 19° 92° (E) 02:54:10 436.925 FM
Oscar 19 23 Oct 02:58:28 03:03:28 55° 288° (WNW) 03:08:26 437.125 CW, 437.150 USB
AO-27 23 Oct 03:10:45 03:16:01 80° 104° (ESE) 03:21:14 436.795 MHz FM
Sapphire 23 Oct 03:43:17 03:47:52 29° 109° (ESE) 03:52:28 437.095 MHz 1200 baud AX-25 AFSK
Oscar 16 23 Oct 03:44:45 03:48:35 22° 296° (WNW) 03:52:26 437.025 USB, Beacon 2401.1428
AO-Echo 23 Oct 03:55:39 04:00:19 32° 293° (WNW) 04:04:58 ?
JAS-1B 23 Oct 03:56:41 04:02:25 34° 293° (WNW) 04:09:02 435.800 - 435.900 CW/SSB
Uribyol 2 23 Oct 03:59:58 04:04:42 36° 292° (WNW) 04:09:23 436.500 FM
Uosat F 23 Oct 04:01:55 04:04:05 13° 90° (E) 04:06:15 435.120 FM
PCSat 23 Oct 04:05:19 04:10:29 49° 113° (ESE) 04:15:43 145.825 MHz
ITAMSAT 1 23 Oct 04:05:30 04:10:11 34° 293° (WNW) 04:14:50 435.822 SSB
Gurwin Techsat 1B 23 Oct 04:13:02 04:18:13 54° 289° (WNW) 04:23:22 435.225 FM
TMSAT-1 23 Oct 04:25:36 04:30:47 55° 288° (WNW) 04:35:56 436.925 FM
AO-7 23 Oct 04:26:19 04:33:53 37° 98° (E) 04:41:24 29.400 - 29.500 MHz
RS-15 23 Oct 04:36:08 04:44:30 24° 17° (NNE) 04:53:02 29.354 - 29.394 USB, Beacon 29.352 USB
OPAL 23 Oct 04:39:48 04:44:47 52° 69° (ENE) 04:49:44 ?
AO-27 23 Oct 04:52:09 04:54:50 14° 301° (WNW) 04:57:30 436.795 MHz FM
Sapphire 23 Oct 05:26:00 05:31:06 41° 307° (NW) 05:36:14 437.095 MHz 1200 baud AX-25 AFSK
Uosat F 23 Oct 05:38:21 05:43:24 74° 286° (WNW) 05:48:25 435.120 FM
PCSat 23 Oct 05:49:36 05:54:09 27° 312° (NW) 05:58:44 145.825 MHz
JAS-2 23 Oct 06:00:18 06:07:54 55° 99° (E) 06:15:31 435.800 - 435.900 CW/SSB, 435.910 FM
AO-7 23 Oct 06:18:53 06:26:49 51° 296° (WNW) 06:34:46 29.400 - 29.500 MHz
OPAL 23 Oct 06:20:15 06:23:55 20° 265° (W) 06:27:36 ?
STRAND 1 23 Oct 06:21:09 06:26:02 47° 70° (ENE) 06:30:58 ?
Hamsat 23 Oct 06:29:41 06:33:50 58° 100° (E) 06:37:58 145.90 MHz
RS-15 23 Oct 06:49:13 07:00:07 55° 48° (NE) 07:11:25 29.354 - 29.394 USB, Beacon 29.352 USB
Saudisat 1A 23 Oct 07:27:26 07:31:03 26° 113° (ESE) 07:34:43 436.775 MHz
SO-67 23 Oct 07:28:41 07:31:48 31° 97° (E) 07:34:54 435.3500 MHz FM
JAS-2 23 Oct 07:45:48 07:52:33 35° 296° (WNW) 07:59:25 435.800 - 435.900 CW/SSB, 435.910 FM
STRAND 1 23 Oct 08:01:39 08:05:27 21° 267° (W) 08:09:18 ?
Hamsat 23 Oct 08:07:23 08:09:18 13° 296° (WNW) 08:11:13 145.90 MHz
AO-7 23 Oct 08:14:59 08:17:41 12° 318° (NW) 08:20:23 29.400 - 29.500 MHz
RS-15 23 Oct 09:01:54 09:12:20 47° 250° (WSW) 09:23:14 29.354 - 29.394 USB, Beacon 29.352 USB
SO-67 23 Oct 09:02:32 09:04:31 15° 293° (WNW) 09:06:29 435.3500 MHz FM
HO-68 23 Oct 09:03:46 09:10:05 32° 96° (E) 09:16:21 435.675 MHz FM
Saudisat 1A 23 Oct 09:06:27 09:10:29 35° 311° (NW) 09:14:33 436.775 MHz
PANSAT 23 Oct 09:16:28 09:17:23 11° 174° (S) 09:18:19 not established
MaSat-1 23 Oct 09:17:25 09:19:43 25° 57° (ENE) 09:21:51 437.345 MHz
UKube-1 23 Oct 09:32:09 09:34:49 16° 92° (E) 09:37:28 145.840 MHz, 145.915 MHz
FUNcube-1 23 Oct 10:08:46 10:11:13 15° 91° (E) 10:13:38 145.950 - 145.970 MHz USB
Oscar 11 23 Oct 10:14:07 10:18:14 42° 99° (E) 10:22:19 145.825 FM, Beacon 2401.500 USB
HO-68 23 Oct 10:51:06 10:57:58 50° 294° (WNW) 11:04:49 435.675 MHz FM
PANSAT 23 Oct 10:55:52 10:56:44 11° 187° (S) 10:57:36 not established
ZACube-1 23 Oct 10:58:29 11:02:42 55° 100° (E) 11:06:47 437.345 MHz
UKube-1 23 Oct 11:07:03 11:11:15 47° 288° (WNW) 11:15:25 145.840 MHz, 145.915 MHz
KITSAT 1 23 Oct 11:25:15 11:31:29 25° 104° (ESE) 11:37:43 435.175 FM
FUNcube-1 23 Oct 11:43:47 11:47:53 45° 288° (WNW) 11:51:52 145.950 - 145.970 MHz USB
Oscar 11 23 Oct 11:51:12 11:54:05 18° 295° (WNW) 11:56:58 145.825 FM, Beacon 2401.500 USB
Sapphire 23 Oct 12:30:34 12:35:10 27° 48° (NE) 12:39:45 437.095 MHz 1200 baud AX-25 AFSK
ZACube-1 23 Oct 12:36:26 12:38:36 14° 297° (WNW) 12:40:45 437.345 MHz
Oscar 19 23 Oct 12:37:12 12:41:28 27° 66° (ENE) 12:45:44 437.125 CW, 437.150 USB
SO-50 23 Oct 12:41:31 12:45:11 25° 112° (ESE) 12:48:57 436.795 FM
AO-27 23 Oct 12:52:10 12:55:21 17° 61° (ENE) 12:58:33 436.795 MHz FM
PCSat 23 Oct 12:53:02 12:58:11 42° 53° (NE) 13:03:17 145.825 MHz
JAS-1B 23 Oct 12:53:05 12:58:21 34° 67° (ENE) 13:03:22 435.800 - 435.900 CW/SSB
ISS 23 Oct 12:58:41 13:01:40 31° 136° (SE) 13:04:41 145.800 FM
Oscar 10/S400 23 Oct 13:09:34 13:27:13 32° 151° (SSE) 13:45:49 145.825 - 145.975 CW/USB, Beacon 145.810 USB
KITSAT 1 23 Oct 13:18:04 13:26:07 72° 303° (WNW) 13:34:14 435.175 FM
Oscar 16 23 Oct 13:21:37 13:26:45 71° 74° (ENE) 13:31:54 437.025 USB, Beacon 2401.1428
AO-Echo 23 Oct 13:30:01 13:34:34 41° 70° (ENE) 13:39:16 ?
Uribyol 2 23 Oct 13:38:34 13:43:29 44° 70° (ENE) 13:48:26 436.500 FM
AO-7 23 Oct 13:39:42 13:42:21 12° 42° (NE) 13:45:00 29.400 - 29.500 MHz
ITAMSAT 1 23 Oct 13:44:08 13:49:05 46° 70° (ENE) 13:54:05 435.822 SSB
Gurwin Techsat 1B 23 Oct 13:55:11 13:59:48 31° 67° (ENE) 14:04:26 435.225 FM
TMSAT-1 23 Oct 14:07:31 14:12:05 30° 66° (ENE) 14:16:39 436.925 FM
Sapphire 23 Oct 14:13:36 14:18:50 49° 247° (WSW) 14:24:01 437.095 MHz 1200 baud AX-25 AFSK
UOSAT-12 23 Oct 14:14:05 14:17:31 21° 111° (ESE) 14:21:00 437.025 FM, 437.400 FM
Oscar 19 23 Oct 14:15:52 14:20:38 38° 262° (W) 14:25:25 437.125 CW, 437.150 USB
SO-50 23 Oct 14:21:20 14:25:32 37° 311° (NW) 14:29:53 436.795 FM
AO-27 23 Oct 14:29:07 14:34:17 68° 258° (WSW) 14:39:31 436.795 MHz FM
ISS 23 Oct 14:35:14 14:38:20 35° 334° (NNW) 14:41:27 145.800 FM
PCSat 23 Oct 14:36:48 14:41:24 29° 251° (WSW) 14:45:58 145.825 MHz
JAS-1B 23 Oct 14:43:44 14:49:04 32° 263° (W) 14:54:07 435.800 - 435.900 CW/SSB
Oscar 16 23 Oct 15:04:00 15:06:36 14° 270° (W) 15:09:12 437.025 USB, Beacon 2401.1428
AO-Echo 23 Oct 15:09:44 15:13:30 22° 267° (W) 15:17:23 ?
Uosat F 23 Oct 15:14:50 15:18:23 20° 63° (ENE) 15:21:56 435.120 FM
KITSAT 1 23 Oct 15:17:08 15:23:03 22° 327° (NNW) 15:28:59 435.175 FM
Uribyol 2 23 Oct 15:19:02 15:23:07 23° 266° (W) 15:27:15 436.500 FM
ITAMSAT 1 23 Oct 15:24:50 15:28:48 22° 267° (W) 15:32:47 435.822 SSB
AO-7 23 Oct 15:25:19 15:33:12 51° 64° (ENE) 15:41:07 29.400 - 29.500 MHz
Gurwin Techsat 1B 23 Oct 15:34:55 15:39:41 34° 264° (W) 15:44:29 435.225 FM
TMSAT-1 23 Oct 15:47:04 15:51:53 35° 263° (W) 15:56:44 436.925 FM
UOSAT-12 23 Oct 15:52:50 15:57:19 47° 308° (NW) 16:01:54 437.025 FM, 437.400 FM
Saudisat 1A 23 Oct 15:53:28 15:57:09 25° 46° (NE) 16:00:49 436.775 MHz
ISS 23 Oct 16:13:42 16:15:46 15° 353° (N) 16:17:50 145.800 FM
JAS-2 23 Oct 16:14:24 16:18:53 22° 58° (ENE) 16:23:45 435.800 - 435.900 CW/SSB, 435.910 FM
Uosat F 23 Oct 16:51:52 16:56:45 52° 260° (W) 17:01:41 435.120 FM
OPAL 23 Oct 16:51:55 16:53:44 12° 92° (E) 16:55:33 ?
AO-7 23 Oct 17:18:43 17:26:09 37° 262° (W) 17:33:40 29.400 - 29.500 MHz
KITSAT 1 23 Oct 17:20:16 17:22:19 11° 357° (N) 17:24:23 435.175 FM
Hamsat 23 Oct 17:23:04 17:27:01 41° 72° (ENE) 17:30:58 145.90 MHz
Saudisat 1A 23 Oct 17:32:42 17:36:51 40° 244° (WSW) 17:40:58 436.775 MHz
ISS 23 Oct 17:51:02 17:53:26 18° 14° (NNE) 17:55:50 145.800 FM
JAS-2 23 Oct 17:57:27 18:03:13 64° 260° (W) 18:09:49 435.800 - 435.900 CW/SSB, 435.910 FM
SO-67 23 Oct 18:03:14 18:04:31 12° 66° (ENE) 18:05:48 435.3500 MHz FM
OPAL 23 Oct 18:28:12 18:33:11 76° 288° (WNW) 18:38:06 ?
STRAND 1 23 Oct 18:32:56 18:35:59 16° 91° (E) 18:39:01 ?
Hamsat 23 Oct 19:00:28 19:03:09 16° 268° (W) 19:05:50 145.90 MHz
KITSAT 1 23 Oct 19:16:32 19:21:51 18° 28° (NNE) 19:27:08 435.175 FM
ISS 23 Oct 19:27:19 19:30:38 63° 33° (NNE) 19:33:57 145.800 FM
HO-68 23 Oct 19:33:19 19:38:57 26° 58° (ENE) 19:44:37 435.675 MHz FM
SO-67 23 Oct 19:33:52 19:37:07 40° 262° (W) 19:40:23 435.3500 MHz FM
STRAND 1 23 Oct 20:10:29 20:15:35 63° 287° (WNW) 20:20:39 ?
OPAL 23 Oct 20:10:57 20:11:11 10° 306° (NW) 20:11:25 ?
UKube-1 23 Oct 20:28:18 20:30:49 15° 63° (ENE) 20:33:20 145.840 MHz, 145.915 MHz
ISS 23 Oct 21:04:56 21:06:59 15° 229° (SW) 21:09:03 145.800 FM
FUNcube-1 23 Oct 21:05:33 21:08:08 15° 64° (ENE) 21:10:42 145.950 - 145.970 MHz USB
Oscar 11 23 Oct 21:09:19 21:13:14 34° 70° (ENE) 21:17:09 145.825 FM, Beacon 2401.500 USB
KITSAT 1 23 Oct 21:11:12 21:19:10 58° 53° (NE) 21:27:05 435.175 FM
SO-50 23 Oct 21:12:11 21:16:23 29° 46° (NE) 21:20:37 436.795 FM
RS-15 23 Oct 21:15:05 21:24:03 30° 104° (ESE) 21:32:53 29.354 - 29.394 USB, Beacon 29.352 USB
HO-68 23 Oct 21:19:00 21:26:05 66° 257° (WSW) 21:33:15 435.675 MHz FM
ZACube-1 23 Oct 21:54:36 21:58:59 47° 72° (ENE) 22:03:21 437.345 MHz
UKube-1 23 Oct 22:02:19 22:06:34 53° 259° (W) 22:10:51 145.840 MHz, 145.915 MHz
